Wind_Speed
51 51 50 51 48 49 49 51 52 54 56 58 60 61 59 56 56 56 55 56 57 59 58 56 55 58 58 58 65 68 67 69 68 70 71 70 72 74 77 79 82 88 94 105 117
57 55 54 54 54 55 56 57 57 58 57 58 62 64 63 61 60 59 60 60 61 60 60 64 62 63 64 64 66 66 66 71 71 73 74 79 78 80 81 84 86 86 87 92 97
64 65 67 64 62 62 62 63 64 64 65 65 62 63 65 66 67 66 66 64 63 65 66 66 67 68 68 69 71 70 70 71 72 71 75 77 79 81 83 83 86 89 91 92 93
68 71 70 71 73 71 70 72 74 75 74 74 73 73 73 72 71 70 70 69 70 69 70 73 73 73 73 73 74 73 74 75 75 76 78 77 80 81 80 82 86 87 93 96 98
77 78 80 79 81 80 80 81 82 82 83 82 80 80 81 83 83 80 80 79 77 78 77 78 78 77 78 79 77 77 79 77 76 78 78 79 81 80 78 79 82 86 90 93 97
84 82 81 76 70 69 70 71 72 73 71 68 67 65 68 73 78 81 83 85 84 82 83 83 83 83 82 83 82 80 80 78 75 76 79 82 83 74 73 71 71 74 79 80 84
69 67 64 63 64 65 66 66 65 64 65 64 64 64 65 66 64 60 61 65 69 72 77 80 80 83 81 81 79 75 75 75 74 74 76 77 72 67 63 62 62 63 66 69 75
68 66 69 66 63 62 62 63 62 61 61 60 61 61 60 59 56 55 57 59 62 63 62 65 69 74 75 75 75 73 75 71 64 68 71 68 66 62 57 56 57 58 62 67 73
63 65 62 60 60 57 59 59 57 57 56 58 59 58 57 56 53 53 54 57 58 56 58 62 64 65 62 63 67 70 62 57 62 66 68 65 62 53 53 53 56 59 62 67 73
60 60 59 57 56 54 53 52 52 55 56 55 56 54 53 51 48 49 51 53 54 55 56 54 55 57 59 60 60 61 62 58 59 65 59 52 51 47 49 52 53 56 61 67 75
55 56 56 55 54 53 49 50 48 51 54 53 53 51 51 49 44 44 46 48 49 50 51 51 52 53 58 51 54 61 57 59 58 54 46 47 47 45 48 48 51 53 61 67 75
52 53 52 53 51 51 50 48 47 47 52 51 50 51 46 43 41 41 41 43 44 45 43 44 46 47 47 49 49 47 56 61 60 45 44 44 44 44 45 46 49 54 57 63 70
50 50 50 51 49 48 48 47 48 47 47 49 49 45 40 40 39 38 39 40 41 42 38 39 42 44 48 46 45 49 51 47 43 44 43 41 40 43 45 47 51 56 59 64 71
52 50 50 49 47 46 45 45 46 45 43 46 45 41 40 38 37 37 37 37 39 41 41 41 42 43 43 43 45 43 38 37 40 41 41 39 35 41 45 48 51 59 63 65 69
55 50 49 48 47 45 44 44 42 44 41 42 42 40 39 36 35 35 34 34 36 38 39 39 39 40 41 41 39 35 35 38 37 40 41 38 37 40 45 49 53 60 64 66 67
55 54 54 53 51 48 44 43 41 42 41 40 41 40 38 35 33 32 32 31 33 34 35 35 36 37 34 32 33 33 36 39 38 40 40 39 38 40 47 51 55 61 65 68 67
56 56 56 55 54 51 45 43 42 40 41 39 39 39 38 35 33 31 30 30 32 32 32 33 31 30 29 29 32 35 38 37 37 40 39 40 40 42 49 52 56 61 67 69 68
62 63 60 53 51 52 46 42 40 39 40 39 38 38 35 33 32 32 30 29 29 29 29 29 28 26 28 32 35 37 38 38 36 39 39 41 42 42 50 54 57 61 67 69 70
68 62 62 57 52 49 49 42 39 37 34 38 38 37 35 33 31 32 30 28 28 27 29 28 28 29 30 33 37 39 36 37 38 38 38 40 43 43 49 55 56 60 64 67 69
75 69 63 59 55 54 50 48 42 38 35 32 40 38 37 33 31 32 30 31 30 30 30 31 33 33 33 34 37 38 35 36 39 37 37 39 45 42 47 52 55 59 61 64 67
81 76 69 60 58 59 56 52 48 42 35 31 34 41 35 34 32 33 32 32 32 32 33 35 36 36 35 36 37 37 34 35 38 40 37 35 43 43 46 48 52 54 56 58 64
83 77 72 67 59 55 55 56 56 49 42 34 32 36 38 34 35 33 33 33 34 35 36 38 39 38 38 38 39 38 35 33 37 39 41 36 36 40 44 43 47 49 49 54 61
85 82 77 73 69 61 55 52 52 55 48 43 36 33 37 36 35 34 34 34 36 38 39 40 42 43 42 41 41 42 39 36 37 39 41 37 38 36 39 39 39 42 44 50 57
87 83 81 76 72 68 61 56 54 53 53 47 41 37 39 35 35 36 35 36 37 39 40 41 46 48 46 43 43 46 46 40 38 39 40 36 38 31 33 34 35 36 39 46 54
90 85 84 79 76 71 68 65 61 55 55 50 50 40 40 40 40 35 39 37 38 39 41 41 45 46 48 46 44 48 49 45 43 38 39 37 31 30 31 31 30 33 37 43 49
91 88 87 81 79 77 72 71 69 64 57 56 52 50 50 41 41 41 38 38 40 41 41 42 43 47 50 49 46 47 48 48 45 41 40 36 31 27 27 29 27 31 34 39 44
92 91 88 84 81 79 78 75 71 68 67 57 54 52 44 48 46 42 44 40 39 42 42 43 41 43 51 54 50 50 48 45 47 45 41 38 34 27 27 28 27 29 33 36 39
Wind_Direction
300 300 297 295 290 287 285 284 283 281 279 278 276 276 274 271 271 272 270 269 267 262 260 263 268 267 269 270 267 263 266 266 266 265 266 266 265 266 264 262 261 260 258 257 257
300 297 292 290 288 286 283 281 282 281 279 276 274 272 271 268 269 269 268 267 264 263 265 264 265 267 269 271 270 268 270 267 269 269 268 265 265 267 265 264 263 261 259 256 254
299 298 296 291 286 283 282 281 278 278 278 277 275 272 272 270 269 265 265 263 262 262 265 267 270 272 272 272 273 272 273 274 273 270 269 266 265 265 264 263 265 263 262 260 256
297 296 295 293 292 289 286 284 284 283 282 280 275 274 273 270 267 263 262 263 262 260 261 266 268 269 270 272 271 272 273 274 275 275 274 273 271 270 269 268 265 262 262 260 258
298 298 297 295 293 291 288 287 286 285 285 284 280 278 274 270 269 266 265 264 264 263 262 263 265 267 269 270 270 271 270 271 272 272 274 275 276 277 272 269 266 265 262 262 262
299 299 297 299 297 295 294 290 290 290 288 287 286 284 281 276 274 271 269 267 266 265 264 265 265 267 268 268 268 269 269 269 271 272 273 273 276 279 276 273 269 268 265 263 262
306 305 306 305 303 299 294 292 292 291 292 291 289 286 282 281 278 276 273 269 267 264 266 264 264 265 267 268 271 271 270 271 273 273 273 275 277 278 274 273 272 269 266 265 263
313 311 309 308 303 300 297 297 294 294 295 293 292 289 285 282 279 274 272 268 266 265 264 264 263 263 263 265 269 271 273 275 271 271 274 276 278 277 276 275 274 272 269 267 266
312 310 310 308 308 304 299 298 298 296 294 290 290 291 287 284 281 275 271 268 268 266 264 264 263 263 265 266 266 265 270 269 266 273 274 276 276 276 277 277 276 275 275 273 273
313 313 310 305 308 308 307 302 301 295 294 295 293 293 289 284 281 275 271 268 263 260 261 261 262 257 260 262 259 261 268 265 270 272 273 273 274 274 277 277 278 281 280 279 275
319 317 314 312 310 310 308 306 303 298 295 297 297 293 288 286 281 278 275 270 265 263 261 263 259 259 259 261 264 265 263 266 272 274 271 272 275 277 276 279 283 287 284 281 279
324 323 323 318 315 314 314 312 308 302 299 299 297 292 288 286 284 282 278 273 270 268 266 262 262 257 256 261 260 265 264 265 272 270 270 273 279 279 282 287 291 294 293 295 292
328 327 326 326 322 317 316 315 309 308 302 300 297 291 288 290 286 282 279 274 269 267 261 261 259 259 256 260 268 271 270 264 263 267 269 273 278 281 286 294 299 306 305 301 297
338 333 330 328 326 322 319 315 311 310 304 301 298 294 291 289 287 283 277 274 270 267 267 263 261 262 264 266 268 266 260 261 264 268 272 274 274 281 295 299 304 312 309 306 303
343 340 337 334 329 327 322 317 315 311 309 303 300 296 292 290 289 286 283 276 270 269 267 267 268 267 266 264 261 257 259 260 263 268 272 273 279 285 295 303 308 311 312 311 309
348 347 341 338 336 333 329 321 315 311 308 304 302 298 293 291 289 283 280 277 274 269 266 266 266 267 264 260 257 257 261 259 264 270 273 276 284 287 297 304 309 314 317 318 319
353 352 345 340 337 337 332 325 317 312 309 309 304 300 296 292 291 288 284 278 274 269 263 265 265 261 256 257 258 260 259 262 266 272 274 275 284 291 296 303 312 316 319 321 325
0 359 352 345 338 334 339 330 323 311 308 308 304 301 298 293 292 289 286 283 276 269 265 264 264 256 255 258 259 262 263 264 266 272 273 277 283 291 295 304 312 317 321 323 330
0 2 0 353 345 338 339 340 336 322 311 307 307 304 298 295 289 289 289 280 274 267 262 257 252 251 254 257 260 262 261 267 270 272 271 277 283 293 299 302 310 316 322 325 332
357 359 5 0 358 349 343 348 345 336 322 310 305 305 299 295 291 289 286 280 273 266 260 253 249 254 256 256 261 259 264 268 274 276 278 283 287 292 295 301 309 316 321 327 336
353 355 359 5 7 4 357 353 350 344 330 315 305 302 300 295 292 289 289 281 272 266 259 252 253 256 260 259 263 262 264 268 274 279 280 284 287 292 296 304 310 316 321 329 340
352 354 358 0 5 10 8 1 356 349 341 326 310 303 302 297 292 287 287 283 275 267 260 258 255 255 257 260 263 267 264 271 274 281 283 288 292 296 300 306 310 317 323 335 342
351 351 352 355 357 4 7 5 3 357 347 338 325 307 303 300 294 289 286 282 278 270 262 259 258 258 258 259 261 267 267 271 277 280 283 289 296 302 305 310 313 319 326 339 343
349 348 349 350 353 357 2 2 3 1 356 348 335 326 309 299 295 289 285 282 276 273 268 261 259 262 263 262 260 264 268 269 272 277 282 288 297 305 308 312 316 324 331 340 344
346 348 346 347 348 350 355 356 357 1 358 355 347 335 322 308 296 288 286 281 275 274 272 266 257 256 261 263 263 266 269 273 275 276 281 287 293 302 313 319 322 330 334 339 345
343 344 344 343 345 345 349 352 351 350 358 354 351 343 337 316 304 289 283 282 276 272 270 270 262 256 256 258 260 262 265 268 272 276 279 282 289 293 307 317 321 330 335 339 344
340 341 340 340 340 341 343 346 347 346 347 351 352 345 340 331 312 299 286 278 276 273 270 267 268 261 257 259 262 263 263 267 269 272 276 277 282 285 295 307 315 322 332 338 342
Height
10706 10701 10695 10690 10685 10680 10676 10671 10667 10663 10660 10656 10652 10649 10648 10646 10644 10643 10641 10638 10635 10635 10634 10633 10631 10630 10630 10628 10627 10626 10627 10627 10626 10626 10626 10625 10624 10623 10623 10623 10624 10624 10629 10631 10638
10692 10686 10680 10675 10670 10665 10660 10655 10651 10647 10642 10640 10636 10632 10631 10629 10628 10627 10624 10622 10620 10619 10617 10616 10616 10615 10614 10612 10612 10612 10612 10611 10607 10608 10609 10608 10607 10607 10605 10602 10602 10603 10605 10608 10609
10678 10671 10665 10658 10652 10647 10642 10637 10632 10628 10624 10621 10617 10615 10612 10611 10610 10608 10605 10603 10603 10603 10601 10599 10598 10598 10597 10596 10595 10594 10595 10592 10592 10591 10588 10587 10589 10588 10584 10583 10582 10582 10582 10584 10587
10663 10656 10649 10642 10635 10629 10624 10618 10613 10608 10605 10602 10599 10595 10592 10591 10589 10587 10585 10584 10584 10584 10584 10582 10582 10581 10580 10580 10578 10579 10578 10576 10575 10573 10570 10568 10567 10566 10563 10563 10560 10560 10560 10560 10562
10647 10639 10632 10624 10616 10609 10602 10596 10590 10586 10582 10578 10576 10573 10570 10566 10565 10564 10563 10563 10564 10563 10564 10564 10563 10564 10563 10561 10561 10561 10560 10559 10558 10557 10553 10549 10549 10544 10543 10542 10540 10539 10539 10538 10538
10628 10619 10611 10604 10597 10588 10580 10574 10568 10563 10558 10554 10550 10547 10544 10541 10539 10538 10538 10539 10542 10543 10543 10543 10544 10544 10545 10543 10542 10542 10542 10542 10542 10540 10535 10532 10530 10526 10523 10521 10520 10520 10520 10518 10517
10609 10600 10594 10587 10578 10570 10562 10556 10551 10545 10540 10535 10531 10527 10523 10519 10516 10518 10517 10515 10517 10518 10518 10519 10521 10522 10522 10521 10523 10524 10522 10522 10524 10522 10517 10514 10511 10510 10507 10505 10503 10501 10500 10499 10494
10593 10584 10576 10568 10559 10551 10545 10538 10532 10527 10522 10517 10513 10510 10506 10502 10500 10499 10498 10497 10497 10499 10499 10499 10500 10501 10502 10503 10505 10504 10504 10505 10504 10503 10499 10494 10493 10493 10490 10489 10487 10486 10482 10477 10471
10579 10568 10559 10551 10543 10536 10529 10523 10516 10509 10503 10500 10497 10494 10490 10486 10484 10482 10480 10479 10480 10481 10482 10483 10483 10484 10486 10487 10488 10488 10489 10488 10488 10484 10482 10479 10476 10477 10474 10474 10470 10466 10462 10456 10452
10566 10557 10547 10537 10529 10521 10515 10508 10501 10492 10487 10485 10481 10478 10473 10470 10468 10465 10464 10463 10463 10465 10466 10467 10467 10469 10470 10471 10472 10473 10473 10473 10474 10470 10467 10465 10462 10465 10463 10458 10454 10449 10442 10437 10427
10553 10544 10533 10525 10516 10508 10504 10495 10488 10479 10474 10472 10468 10463 10459 10455 10454 10451 10450 10450 10450 10450 10451 10452 10453 10455 10456 10458 10459 10459 10459 10459 10459 10456 10454 10452 10450 10450 10447 10443 10438 10432 10424 10414 10403
10543 10533 10523 10514 10505 10496 10489 10481 10475 10470 10463 10459 10456 10451 10446 10443 10440 10438 10438 10437 10436 10437 10438 10439 10441 10442 10444 10446 10446 10445 10445 10444 10445 10443 10441 10439 10436 10433 10430 10427 10420 10412 10403 10391 10379
10532 10522 10512 10503 10495 10487 10479 10471 10464 10459 10454 10448 10444 10440 10436 10432 10429 10427 10425 10424 10424 10424 10427 10427 10428 10430 10432 10432 10431 10431 10430 10430 10431 10430 10430 10429 10425 10419 10415 10410 10402 10393 10383 10372 10357
10527 10516 10505 10495 10486 10478 10470 10463 10455 10450 10445 10440 10434 10429 10426 10422 10420 10417 10415 10415 10414 10414 10415 10415 10417 10417 10418 10419 10419 10419 10419 10419 10419 10417 10417 10415 10418 10407 10401 10395 10386 10375 10365 10352 10334
10522 10511 10499 10487 10478 10469 10461 10454 10446 10440 10436 10430 10425 10420 10416 10413 10410 10407 10406 10405 10404 10404 10404 10405 10405 10404 10405 10407 10408 10408 10409 10410 10409 10408 10405 10403 10403 10396 10388 10380 10370 10361 10347 10332 10314
10517 10505 10492 10480 10470 10460 10452 10444 10438 10431 10426 10422 10417 10413 10407 10404 10401 10399 10397 10395 10394 10393 10393 10393 10393 10394 10395 10397 10398 10399 10400 10400 10399 10397 10395 10391 10388 10386 10375 10367 10358 10345 10332 10316 10297
10515 10501 10487 10474 10462 10452 10443 10435 10429 10422 10417 10413 10408 10403 10399 10396 10393 10391 10388 10387 10385 10384 10384 10385 10385 10386 10387 10388 10389 10390 10390 10391 10390 10386 10384 10380 10378 10374 10364 10356 10346 10333 10318 10301 10283
10511 10497 10485 10471 10459 10446 10437 10429 10420 10415 10409 10405 10400 10395 10390 10387 10384 10382 10380 10378 10376 10376 10376 10377 10377 10379 10379 10379 10379 10380 10381 10380 10381 10377 10374 10370 10366 10363 10352 10341 10333 10322 10307 10290 10270
10507 10494 10481 10467 10454 10441 10430 10421 10413 10407 10400 10394 10391 10386 10382 10379 10375 10373 10372 10370 10368 10368 10368 10368 10369 10371 10371 10371 10371 10370 10370 10369 10368 10368 10365 10362 10355 10352 10341 10330 10323 10311 10298 10280 10260
10502 10490 10478 10465 10452 10438 10426 10416 10408 10400 10394 10389 10382 10379 10374 10371 10367 10364 10363 10361 10360 10359 10359 10359 10359 10361 10362 10362 10362 10361 10360 10359 10356 10357 10354 10352 10344 10341 10334 10323 10313 10301 10289 10272 10251
10497 10484 10473 10463 10447 10434 10422 10410 10402 10395 10388 10382 10376 10371 10369 10363 10360 10356 10354 10353 10351 10350 10350 10350 10351 10351 10352 10352 10351 10351 10351 10350 10346 10343 10343 10343 10335 10332 10324 10316 10303 10294 10282 10266 10246
10490 10478 10467 10454 10446 10434 10421 10409 10399 10390 10381 10376 10369 10364 10360 10358 10351 10347 10344 10343 10341 10341 10341 10341 10340 10341 10341 10342 10341 10340 10341 10340 10337 10333 10330 10330 10328 10321 10314 10308 10297 10286 10276 10260 10243
10483 10470 10461 10448 10437 10427 10417 10408 10399 10389 10378 10370 10364 10357 10352 10349 10344 10339 10335 10333 10332 10330 10329 10329 10329 10329 10330 10331 10332 10329 10329 10329 10328 10324 10320 10319 10316 10313 10305 10298 10290 10279 10269 10255 10240
10479 10466 10455 10443 10432 10422 10412 10405 10394 10386 10375 10365 10359 10351 10345 10338 10336 10330 10326 10323 10321 10319 10318 10319 10317 10319 10319 10320 10321 10318 10317 10319 10317 10315 10312 10311 10304 10304 10297 10290 10280 10272 10262 10252 10238
10471 10461 10447 10436 10425 10415 10405 10394 10386 10380 10368 10361 10351 10345 10338 10331 10324 10321 10316 10312 10309 10308 10306 10307 10305 10306 10305 10307 10310 10307 10306 10307 10304 10305 10303 10300 10300 10294 10288 10281 10273 10266 10256 10248 10236
10461 10450 10439 10428 10417 10406 10395 10385 10376 10366 10364 10353 10345 10336 10327 10321 10315 10309 10305 10303 10296 10294 10293 10292 10293 10294 10290 10291 10295 10295 10295 10295 10294 10294 10292 10291 10289 10287 10283 10276 10269 10261 10253 10244 10235
10452 10439 10427 10419 10407 10396 10385 10375 10368 10359 10348 10345 10337 10328 10320 10310 10301 10298 10293 10288 10287 10282 10280 10277 10278 10281 10278 10277 10280 10280 10282 10284 10284 10283 10283 10282 10280 10280 10277 10270 10264 10257 10250 10242 10234